Probability
0 0 0 0 0 0 0 0 0 0 0 0 0 0 0 0 0 1 1 1 0 0 0 0 0 0 0 0 0 0 0 0 0 0 0 0 0 0 0 0 0 0 0
0 0 0 0 0 0 0 0 0 0 0 0 0 0 0 1 1 2 2 1 1 0 0 0 0 0 0 0 0 0 0 0 0 0 0 0 0 0 0 0 0 0 0
0 0 0 0 0 0 0 0 0 0 0 0 0 0 0 1 2 2 2 2 1 0 0 1 1 0 0 0 0 0 0 0 0 0 0 0 0 0 0 0 0 0 0
0 0 0 0 0 0 0 0 0 0 0 0 0 0 0 1 1 1 1 1 1 0 0 1 2 1 0 0 0 0 0 0 0 0 0 0 0 0 0 0 0 0 0
0 0 0 1 1 0 0 0 0 0 0 0 0 0 0 0 0 0 0 1 1 0 0 2 3 2 1 0 0 0 0 0 0 0 0 0 0 0 0 0 0 0 0
0 0 0 1 1 1 1 1 0 0 0 0 1 2 2 1 0 0 0 1 1 0 1 2 3 3 1 0 0 0 0 0 0 0 0 0 0 0 0 0 0 0 0
0 0 0 1 1 1 1 1 0 0 0 2 4 5 4 3 2 1 0 0 1 1 2 3 3 3 2 1 0 0 0 0 0 0 0 0 0 0 0 0 0 0 0
0 0 0 0 0 0 1 1 0 1 1 3 6 5 4 4 4 3 1 1 1 2 3 2 2 2 2 1 0 0 0 0 0 0 0 0 0 0 0 0 0 0 0
0 0 0 0 0 0 0 0 1 2 2 4 5 5 4 5 6 6 5 4 3 3 3 2 1 1 1 1 0 0 0 0 0 0 0 0 0 0 0 0 0 0 0
0 0 0 0 0 0 0 0 1 2 2 2 4 4 4 5 6 7 7 7 6 5 4 3 2 1 1 1 0 0 0 0 0 0 0 0 0 0 0 0 0 0 0
0 0 0 0 0 0 0 0 0 1 1 1 1 2 2 2 3 4 5 6 6 6 6 5 3 3 2 1 0 0 0 0 0 0 0 0 0 0 0 0 0 0 0
0 0 0 0 0 0 0 0 0 0 0 0 0 0 0 0 0 0 2 2 3 4 5 5 4 3 2 1 0 1 1 0 0 0 0 0 0 0 0 0 0 0 0
0 0 0 0 0 0 0 0 0 0 0 0 0 0 0 0 0 0 0 0 1 1 2 2 2 2 1 0 0 1 1 0 0 0 0 0 0 0 0 0 0 0 0
0 0 0 0 0 0 0 0 0 0 0 0 0 0 0 0 0 0 0 0 0 0 0 0 0 0 0 0 0 0 0 0 0 0 0 0 0 0 0 0 0 0 0
0 0 0 0 0 0 0 0 0 0 0 0 0 0 0 0 0 0 0 0 0 0 0 0 0 0 1 1 1 0 0 0 0 0 0 0 0 0 0 0 0 0 0
0 0 0 0 0 0 0 0 0 0 0 0 0 0 0 0 0 0 0 0 0 0 0 0 0 0 1 2 1 0 0 0 0 0 0 0 0 0 0 1 1 0 0
0 0 0 0 0 0 0 0 0 0 0 0 0 0 0 0 0 0 0 0 0 0 0 0 0 0 1 1 1 0 0 0 0 0 0 0 0 0 1 2 3 2 1
0 0 0 0 0 0 0 0 0 0 0 0 0 0 0 0 0 0 0 0 0 0 0 0 0 0 0 0 0 0 0 0 0 0 0 0 0 0 1 2 4 3 2
0 0 0 0 0 0 0 0 0 0 0 0 0 0 0 0 0 0 0 0 0 0 0 0 0 0 0 0 0 0 0 0 0 0 0 0 0 0 0 1 2 3 3
0 0 0 0 0 0 0 0 0 0 0 0 0 0 0 0 0 0 0 0 0 0 0 0 0 0 0 0 0 0 0 0 0 0 0 0 0 0 0 0 0 1 1
0 0 0 0 0 0 0 0 0 0 0 0 0 0 0 0 0 0 0 0 0 0 0 0 0 0 0 0 0 0 0 0 0 0 0 0 0 0 0 0 0 0 0
0 0 0 0 0 0 0 0 0 0 0 0 0 0 0 0 0 0 0 0 0 0 0 0 0 0 0 0 0 0 0 0 0 0 0 0 0 0 0 0 0 0 0
0 0 0 0 0 0 0 0 0 0 0 0 0 0 0 0 0 0 0 0 0 0 0 0 0 0 0 0 0 0 0 0 0 0 0 0 0 0 0 0 0 0 0
0 0 0 0 0 0 0 0 0 0 0 0 0 0 0 0 0 0 0 0 0 0 0 0 0 0 0 0 0 0 0 0 0 0 0 0 0 0 0 0 0 0 0
0 0 0 0 0 0 0 0 0 0 0 0 0 0 0 0 0 0 0 0 0 0 0 0 0 0 0 0 0 0 0 0 0 0 0 0 0 0 0 0 0 0 0
0 0 0 0 0 0 0 0 0 0 0 0 0 0 0 0 0 0 0 0 0 0 0 0 0 0 0 0 0 0 0 0 0 0 0 0 0 0 0 0 0 0 0
Wind_Speed
2 3 6 6 5 4 3 3 3 3 3 3 4 4 4 5 4 4 3 3 3 3 3 3 3 3 4 4 4 4 4 4 4 4 4 4 4 5 5 5 6 4 6
3 3 6 6 5 4 3 2 2 2 2 3 3 3 4 4 4 4 3 2 2 2 2 1 1 2 2 3 3 3 3 3 3 3 3 3 3 4 4 5 5 3 6
4 3 3 5 4 3 3 2 2 2 2 3 3 4 4 4 4 4 4 3 3 3 2 2 1 1 1 1 2 2 3 3 2 2 3 1 1 3 4 4 5 6 6
4 2 2 4 3 2 2 2 2 3 3 3 4 4 5 5 5 5 5 5 5 4 4 3 3 2 1 0 1 2 2 3 2 2 2 1 0 3 4 4 5 6 6
3 2 1 2 2 1 1 2 2 3 3 4 4 5 5 6 6 6 6 6 6 6 6 5 4 4 3 2 1 1 2 2 2 3 1 1 0 2 4 4 5 5 6
2 1 0 2 1 1 2 2 3 4 4 5 5 6 6 6 7 7 7 7 8 7 7 7 6 5 4 3 2 2 1 2 2 1 1 0 0 2 4 4 4 5 6
2 1 1 1 1 0 1 3 3 4 4 5 6 6 7 7 7 7 7 8 9 8 8 8 8 7 6 5 4 3 2 1 1 0 0 1 2 4 4 5 5 5 5
2 1 2 2 2 2 2 2 3 4 5 6 7 7 7 7 8 8 8 8 8 9 9 8 8 8 8 7 6 4 3 2 0 0 1 1 4 4 5 6 5 5 5
2 1 2 2 3 4 4 4 5 5 6 6 6 7 7 7 7 8 8 8 9 9 9 8 8 8 8 8 7 6 4 3 1 1 2 2 4 5 5 6 6 6 6
2 1 2 2 2 3 4 6 6 5 6 6 6 5 6 6 7 7 8 8 8 8 8 8 8 9 9 8 8 7 5 2 1 2 1 3 6 6 6 6 7 6 6
1 1 1 2 2 3 2 3 5 5 6 6 6 7 6 3 4 4 6 8 8 8 8 8 8 9 9 8 8 7 4 1 2 2 2 5 7 7 7 7 7 7 7
1 1 1 1 2 2 2 2 2 3 3 3 3 3 3 3 2 3 6 7 8 8 7 7 7 8 6 2 4 5 1 2 2 2 3 7 8 8 7 8 8 8 8
1 1 1 1 1 2 2 2 2 2 2 3 3 3 2 2 2 2 2 3 4 5 3 4 4 2 2 2 2 2 2 2 2 2 3 7 8 8 8 9 9 9 8
1 1 1 1 1 2 1 2 1 2 2 2 3 3 2 2 2 2 2 2 2 2 2 2 1 2 2 3 3 3 3 2 2 2 3 8 9 9 9 9 10 10 10
1 1 1 1 1 2 2 2 2 2 2 2 2 2 2 1 2 2 2 2 2 2 2 2 2 2 2 3 3 3 3 3 3 3 3 7 8 9 10 10 11 10 10
2 1 1 1 1 2 1 2 2 2 2 2 2 2 2 1 1 1 2 2 2 2 2 2 2 2 2 2 2 3 3 3 3 3 3 4 7 8 9 10 11 11 11
2 1 1 1 1 2 2 2 2 2 2 2 2 3 3 2 2 1 2 2 2 2 2 1 2 1 1 1 2 2 2 3 3 3 3 3 3 6 8 9 10 11 12
1 1 2 1 1 2 2 2 2 2 2 2 2 2 3 3 2 1 1 2 2 2 1 1 1 1 1 1 1 2 1 2 3 3 3 3 2 2 4 7 9 10 11
2 1 1 2 2 2 3 2 2 2 2 2 2 3 3 3 2 1 2 2 2 1 1 1 0 1 1 1 2 1 1 1 2 2 2 3 3 2 2 4 7 8 10
1 0 1 2 2 2 2 2 3 3 3 2 2 3 4 3 2 2 2 2 2 1 1 1 1 0 1 1 1 1 1 1 1 1 2 1 2 2 2 2 3 4 8
0 0 1 2 2 2 2 2 2 3 3 3 3 3 4 3 3 2 1 2 1 1 1 1 1 0 0 0 1 1 1 1 0 0 1 1 1 2 2 3 3 2 3
1 1 2 2 2 2 1 1 2 2 3 3 3 4 4 4 3 2 1 1 1 1 1 1 0 0 0 0 1 1 1 2 1 1 0 1 1 1 2 3 3 3 3
3 3 2 3 3 2 2 1 2 2 2 3 3 4 4 4 3 2 2 1 1 1 1 1 1 1 1 0 0 2 2 1 1 1 1 0 1 1 1 2 3 3 4
4 3 2 2 2 2 2 1 1 1 2 3 3 3 5 4 4 3 2 2 1 1 1 1 1 1 2 1 0 0 1 1 1 1 1 1 0 1 1 2 2 3 3
3 2 2 2 3 2 2 1 1 2 2 3 3 4 4 4 4 3 3 2 1 1 1 1 0 1 1 2 1 1 1 1 0 1 1 1 1 1 1 2 2 2 3
2 2 2 2 3 2 2 2 1 2 3 4 4 4 4 3 3 4 3 2 2 1 1 1 1 1 1 2 2 1 2 1 1 1 1 1 1 1 1 1 1 2 2
Wind_Direction
205 206 195 168 154 144 143 146 149 149 148 152 149 148 151 150 146 145 142 136 131 121 110 100 85 82 82 75 72 71 74 76 79 80 81 91 100 102 102 101 102 93 102
168 176 187 171 162 156 156 161 179 177 174 181 187 186 181 177 173 169 176 181 177 165 154 130 100 86 85 77 71 65 61 64 66 71 79 90 104 109 108 111 114 115 114
136 157 167 170 169 171 175 193 217 223 218 220 220 217 213 211 206 202 208 216 219 211 200 199 199 144 120 78 59 49 40 40 44 67 82 81 99 119 116 117 120 121 121
131 134 152 175 174 187 211 234 250 257 255 252 247 242 238 235 231 227 228 231 233 228 223 223 226 226 207 217 20 25 23 26 33 69 80 106 171 137 132 131 128 126 126
104 95 134 163 174 196 254 283 291 291 285 277 270 265 259 255 251 245 245 245 244 240 234 233 235 234 229 239 277 343 3 9 35 61 76 86 27 160 146 145 139 134 130
98 79 121 156 172 234 269 287 299 299 300 293 285 278 273 268 265 261 258 256 256 250 244 240 237 237 237 241 255 283 325 356 48 52 70 152 218 190 159 154 152 147 141
120 75 35 104 113 216 271 287 293 302 309 310 305 298 290 285 277 271 266 261 259 256 252 247 242 239 240 243 249 259 279 309 98 41 327 211 238 212 179 166 166 158 149
117 72 24 13 12 353 329 315 310 314 317 318 317 316 310 304 298 289 278 271 266 261 257 254 248 243 241 242 243 249 257 273 223 261 277 236 241 218 194 180 174 167 161
86 62 13 357 352 347 342 332 328 328 325 324 323 320 318 314 310 304 297 287 274 267 263 259 255 251 248 246 244 242 245 251 200 218 254 235 242 227 206 190 182 176 171
65 36 8 2 357 343 336 333 336 335 336 334 330 326 327 326 321 313 309 303 292 276 268 266 264 258 255 251 248 245 241 240 217 232 251 242 242 233 215 197 189 185 176
42 360 3 4 355 342 327 340 344 340 343 346 342 339 342 339 332 319 314 311 309 300 285 275 273 266 260 255 250 248 242 191 209 234 237 244 242 234 221 199 192 187 179
240 310 353 358 350 350 349 357 344 341 340 342 334 335 336 332 321 325 324 320 315 313 305 293 288 277 261 248 250 253 220 200 211 233 241 247 243 235 222 200 194 188 182
221 285 319 339 341 348 340 341 341 336 336 335 333 331 327 329 326 332 331 328 325 321 313 307 303 292 259 222 220 225 222 209 214 235 249 252 246 236 224 204 196 192 186
188 239 288 343 347 336 339 336 333 335 335 330 323 328 336 333 331 326 328 321 321 312 311 302 286 276 259 231 217 222 229 223 219 227 246 254 249 237 223 210 199 194 190
188 242 293 350 351 341 347 333 348 330 328 319 319 323 324 316 313 314 313 316 314 311 308 301 287 271 256 240 225 221 224 226 230 228 239 252 252 241 225 214 202 194 192
211 249 303 333 349 353 344 328 319 322 324 322 315 313 307 283 284 299 306 307 301 296 286 276 272 266 256 234 232 230 227 223 228 229 228 246 250 243 226 216 204 196 194
207 239 290 276 5 351 334 328 329 320 324 316 306 307 299 283 276 279 291 297 294 292 292 294 290 271 259 245 239 239 228 225 225 229 228 225 238 237 222 210 206 201 196
176 218 283 332 1 339 337 330 321 320 322 310 304 306 303 297 289 284 284 290 295 301 294 284 274 273 271 274 264 256 239 232 233 233 225 219 216 219 217 210 206 203 200
168 205 287 325 332 330 333 334 326 324 320 312 314 309 304 303 298 280 280 288 304 313 311 296 267 216 235 271 260 246 242 232 242 242 226 215 207 196 185 205 207 206 205
137 250 318 329 330 335 339 340 337 336 327 324 318 313 315 308 301 284 277 293 306 315 318 310 295 276 230 246 269 280 269 248 237 222 224 205 189 187 177 180 188 209 212
125 310 307 320 321 344 345 335 329 322 318 324 322 324 325 321 312 287 288 296 290 266 267 280 268 267 290 240 75 7 336 314 249 230 197 171 195 195 174 180 181 185 211
217 246 276 292 305 312 296 283 269 281 293 292 311 329 334 331 325 312 291 284 283 274 282 267 213 195 252 145 121 104 358 354 344 330 195 185 212 204 202 198 185 187 195
233 240 256 274 293 307 322 332 337 343 334 340 339 337 332 330 327 322 314 297 291 268 258 247 210 176 185 281 123 141 141 213 318 335 323 181 165 189 226 213 199 193 197
235 243 254 272 292 308 335 355 352 340 321 298 300 306 317 329 332 329 325 323 307 288 272 259 208 195 159 165 13 51 159 171 143 334 340 340 247 209 234 237 214 202 195
231 236 250 275 293 310 328 338 342 321 294 301 310 324 330 332 335 336 331 330 329 312 291 283 255 203 176 173 164 137 76 65 178 168 244 302 301 247 226 225 207 202 201
235 242 252 275 289 307 323 329 322 313 316 326 329 335 334 329 330 339 335 335 327 315 292 277 242 203 203 180 171 167 161 163 199 177 192 224 252 258 241 229 209 204 197